| time (UTC) | temp C | wind direction | speed KPH | gust KPH | rain 1hr cm | rain 24hr cm | rain mn cm | humidity % | barometer mb |
| 20260506203607 | 9 | 0.0 | 0.0 | 0.00 | 0.28 | 0.28 | 87 | 1009.9 | |
| 20260506202604 | 9 | 0.0 | 0.0 | 0.00 | 0.28 | 0.28 | 85 | 1010.0 | |
| 20260506201601 | 9 | 0.0 | 0.0 | 0.00 | 0.28 | 0.28 | 85 | 1009.8 | |
| 20260506200558 | 9 | 0.0 | 0.0 | 0.00 | 0.30 | 0.28 | 85 | 1009.7 | |
| 20260506195555 | 9 | 0.0 | 0.0 | 0.00 | 0.33 | 0.28 | 85 | 1009.7 | |
| 20260506194552 | 9 | 0.0 | 0.0 | 0.00 | 0.43 | 0.28 | 85 | 1009.5 | |
| 20260506193549 | 10 | 0.0 | 0.0 | 0.00 | 0.56 | 0.28 | 86 | 1009.3 | |
| 20260506192546 | 10 | 0.0 | 0.0 | 0.00 | 0.69 | 0.28 | 83 | 1009.2 | |
| 20260506191543 | 10 | 0.0 | 3.2 | 0.00 | 0.76 | 0.28 | 81 | 1009.1 | |
| 20260506190539 | 10 | 45 | 0.0 | 3.2 | 0.00 | 0.84 | 0.28 | 80 | 1008.9 |
| 20260506185536 | 10 | 309 | 1.6 | 6.4 | 0.00 | 0.94 | 0.28 | 79 | 1008.8 |
| 20260506184533 | 10 | 347 | 1.6 | 6.4 | 0.00 | 0.94 | 0.28 | 79 | 1008.8 |
| 20260506183530 | 10 | 0.0 | 3.2 | 0.00 | 1.02 | 0.28 | 81 | 1008.7 | |
| 20260506182527 | 10 | 158 | 0.0 | 3.2 | 0.00 | 1.09 | 0.28 | 81 | 1008.5 |
| 20260506181524 | 11 | 35 | 1.6 | 6.4 | 0.00 | 1.14 | 0.28 | 80 | 1008.4 |
| 20260506180521 | 11 | 296 | 1.6 | 6.4 | 0.00 | 1.22 | 0.28 | 80 | 1008.3 |
| 20260506175518 | 11 | 21 | 3.2 | 6.4 | 0.00 | 1.22 | 0.28 | 81 | 1008.2 |
| 20260506174615 | 11 | 328 | 1.6 | 6.4 | 0.00 | 1.27 | 0.28 | 81 | 1008.1 |
| 20260506173612 | 11 | 46 | 1.6 | 6.4 | 0.00 | 1.32 | 0.28 | 82 | 1008.0 |
| 20260506172609 | 11 | 2 | 1.6 | 11.3 | 0.00 | 1.35 | 0.28 | 80 | 1007.9 |
| 20260506171606 | 11 | 347 | 3.2 | 6.4 | 0.00 | 1.35 | 0.28 | 79 | 1007.8 |
| 20260506170603 | 11 | 23 | 3.2 | 11.3 | 0.00 | 1.35 | 0.28 | 80 | 1007.8 |
| 20260506165559 | 11 | 14 | 1.6 | 9.7 | 0.00 | 1.35 | 0.28 | 81 | 1007.8 |
| 20260506164557 | 11 | 358 | 1.6 | 6.4 | 0.00 | 1.35 | 0.28 | 79 | 1007.8 |
| 20260506163553 | 11 | 350 | 1.6 | 6.4 | 0.00 | 1.35 | 0.28 | 79 | 1007.8 |
| 20260506162550 | 11 | 342 | 0.0 | 3.2 | 0.00 | 1.35 | 0.28 | 81 | 1007.7 |
| 20260506161547 | 11 | 15 | 1.6 | 6.4 | 0.00 | 1.35 | 0.28 | 80 | 1007.7 |
| 20260506160544 | 12 | 22 | 3.2 | 9.7 | 0.00 | 1.35 | 0.28 | 79 | 1007.7 |
| 20260506155541 | 12 | 345 | 1.6 | 3.2 | 0.00 | 1.35 | 0.28 | 80 | 1007.8 |
| 20260506154537 | 11 | 359 | 1.6 | 6.4 | 0.00 | 1.35 | 0.28 | 82 | 1007.6 |
| 20260506153534 | 12 | 11 | 3.2 | 11.3 | 0.00 | 1.37 | 0.28 | 77 | 1007.6 |
| 20260506152531 | 12 | 58 | 3.2 | 9.7 | 0.00 | 1.37 | 0.28 | 76 | 1007.4 |
| 20260506151528 | 12 | 16 | 3.2 | 6.4 | 0.00 | 1.42 | 0.28 | 80 | 1007.3 |
| 20260506150525 | 12 | 320 | 1.6 | 11.3 | 0.00 | 1.42 | 0.28 | 80 | 1007.3 |
| 20260506145522 | 12 | 329 | 1.6 | 6.4 | 0.00 | 1.45 | 0.28 | 81 | 1007.2 |
| 20260506144559 | 11 | 349 | 1.6 | 6.4 | 0.00 | 1.45 | 0.28 | 83 | 1007.2 |
| 20260506143516 | 12 | 248 | 4.8 | 9.7 | 0.00 | 1.45 | 0.28 | 80 | 1007.1 |
| 20260506142613 | 12 | 352 | 1.6 | 3.2 | 0.00 | 1.47 | 0.28 | 82 | 1007.1 |
| 20260506141610 | 11 | 290 | 1.6 | 6.4 | 0.00 | 1.47 | 0.28 | 84 | 1007.3 |
| 20260506140607 | 11 | 321 | 1.6 | 6.4 | 0.00 | 1.50 | 0.28 | 85 | 1007.4 |
| 20260506135623 | 11 | 19 | 3.2 | 6.4 | 0.00 | 1.50 | 0.28 | 85 | 1007.4 |
| 20260506134600 | 11 | 17 | 3.2 | 6.4 | 0.00 | 1.52 | 0.28 | 85 | 1007.4 |
| 20260506133557 | 11 | 345 | 0.0 | 3.2 | 0.00 | 1.52 | 0.28 | 86 | 1007.4 |
| 20260506132554 | 11 | 342 | 1.6 | 3.2 | 0.00 | 1.55 | 0.28 | 85 | 1007.4 |
| 20260506131611 | 12 | 301 | 1.6 | 3.2 | 0.00 | 1.55 | 0.28 | 84 | 1007.2 |
| 20260506130548 | 12 | 291 | 1.6 | 6.4 | 0.00 | 1.60 | 0.28 | 83 | 1007.2 |
| 20260506125545 | 12 | 315 | 1.6 | 6.4 | 0.00 | 1.60 | 0.28 | 86 | 1007.0 |
| 20260506124601 | 11 | 318 | 1.6 | 6.4 | 0.00 | 1.63 | 0.28 | 85 | 1007.0 |
| 20260506123538 | 11 | 286 | 1.6 | 3.2 | 0.00 | 1.65 | 0.28 | 86 | 1006.9 |
| 20260506122535 | 12 | 328 | 1.6 | 3.2 | 0.00 | 1.70 | 0.28 | 85 | 1006.9 |
| 20260506121612 | 12 | 309 | 1.6 | 6.4 | 0.00 | 1.78 | 0.28 | 84 | 1006.7 |
| 20260506120529 | 12 | 5 | 1.6 | 6.4 | 0.00 | 1.80 | 0.28 | 85 | 1006.6 |
| 20260506115526 | 11 | 332 | 1.6 | 6.4 | 0.00 | 1.83 | 0.28 | 85 | 1006.6 |
| 20260506114522 | 12 | 54 | 1.6 | 6.4 | 0.00 | 1.83 | 0.28 | 86 | 1006.6 |
| 20260506113520 | 11 | 336 | 1.6 | 6.4 | 0.00 | 1.83 | 0.28 | 85 | 1006.4 |
| 20260506112517 | 12 | 339 | 3.2 | 6.4 | 0.00 | 1.83 | 0.28 | 86 | 1006.4 |
| 20260506111614 | 12 | 357 | 1.6 | 3.2 | 0.00 | 1.83 | 0.28 | 86 | 1006.3 |
| 20260506110611 | 12 | 32 | 3.2 | 6.4 | 0.00 | 1.83 | 0.28 | 86 | 1006.3 |
| 20260506105608 | 12 | 293 | 1.6 | 6.4 | 0.00 | 1.83 | 0.28 | 88 | 1006.2 |
| 20260506104605 | 11 | 293 | 0.0 | 3.2 | 0.00 | 1.83 | 0.28 | 88 | 1006.1 |
| 20260506103601 | 11 | 232 | 1.6 | 3.2 | 0.00 | 1.83 | 0.28 | 88 | 1006.3 |
| 20260506102558 | 11 | 297 | 1.6 | 6.4 | 0.00 | 1.83 | 0.28 | 88 | 1006.0 |
| 20260506101555 | 12 | 285 | 0.0 | 3.2 | 0.00 | 1.83 | 0.28 | 88 | 1006.0 |
| 20260506100552 | 11 | 326 | 0.0 | 3.2 | 0.00 | 1.83 | 0.28 | 90 | 1005.9 |
| 20260506095548 | 11 | 1 | 1.6 | 6.4 | 0.00 | 1.83 | 0.28 | 91 | 1005.8 |
| 20260506094545 | 11 | 20 | 3.2 | 6.4 | 0.00 | 1.83 | 0.28 | 90 | 1005.8 |
| 20260506093602 | 12 | 350 | 1.6 | 6.4 | 0.00 | 1.83 | 0.28 | 90 | 1005.8 |
| 20260506092539 | 11 | 302 | 1.6 | 3.2 | 0.00 | 1.83 | 0.28 | 91 | 1005.6 |
| 20260506091536 | 12 | 337 | 1.6 | 3.2 | 0.00 | 1.83 | 0.28 | 91 | 1005.5 |
| 20260506090533 | 12 | 346 | 1.6 | 6.4 | 0.00 | 1.83 | 0.28 | 91 | 1005.5 |
| 20260506085530 | 11 | 356 | 1.6 | 6.4 | 0.00 | 1.83 | 0.28 | 93 | 1005.5 |
| 20260506084527 | 11 | 347 | 1.6 | 6.4 | 0.03 | 1.83 | 0.28 | 93 | 1005.3 |
| 20260506083524 | 11 | 282 | 1.6 | 3.2 | 0.03 | 1.83 | 0.28 | 95 | 1005.2 |
| 20260506082520 | 11 | 304 | 1.6 | 6.4 | 0.03 | 1.83 | 0.28 | 96 | 1005.1 |
| 20260506081517 | 11 | 61 | 1.6 | 6.4 | 0.03 | 1.83 | 0.28 | 96 | 1005.1 |
| 20260506080614 | 11 | 291 | 0.0 | 3.2 | 0.03 | 1.83 | 0.28 | 97 | 1005.1 |
| 20260506072602 | 11 | 315 | 0.0 | 3.2 | 0.00 | 1.80 | 0.23 | 96 | 1005.1 |
| 20260506071559 | 11 | 0 | 0.0 | 3.2 | 0.03 | 1.80 | 0.23 | 96 | 1004.9 |
| 20260506070556 | 11 | 349 | 0.0 | 3.2 | 0.05 | 1.80 | 0.23 | 97 | 1005.0 |
| 20260506061540 | 10 | 338 | 0.0 | 3.2 | 0.10 | 1.78 | 0.20 | 98 | 1004.6 |
| 20260506060557 | 11 | 31 | 1.6 | 3.2 | 0.05 | 1.75 | 0.18 | 98 | 1004.6 |
| 20260506050518 | 11 | 0.0 | 0.0 | 0.13 | 1.68 | 0.13 | 98 | 1004.2 | |
| 20260506044612 | 11 | 0.0 | 3.2 | 0.13 | 1.68 | 0.13 | 98 | 1004.2 | |
| 20260506043609 | 11 | 0.0 | 0.0 | 0.13 | 1.68 | 0.13 | 98 | 1004.3 | |
| 20260506042606 | 11 | 0.0 | 3.2 | 0.10 | 1.65 | 0.10 | 98 | 1004.4 | |
| 20260506041603 | 11 | 0.0 | 0.0 | 0.05 | 1.63 | 0.05 | 98 | 1004.4 | |
| 20260506040600 | 11 | 0.0 | 0.0 | 0.00 | 1.55 | 0.00 | 97 | 1004.4 | |
| 20260506035557 | 11 | 0.0 | 0.0 | 0.00 | 1.55 | 0.00 | 97 | 1004.5 | |
| 20260506034554 | 11 | 0.0 | 0.0 | 0.00 | 1.55 | 0.00 | 97 | 1004.6 | |
| 20260506033550 | 11 | 0.0 | 0.0 | 0.00 | 1.55 | 0.00 | 98 | 1004.7 | |
| 20260506032608 | 11 | 0.0 | 0.0 | 0.00 | 1.55 | 0.00 | 97 | 1004.7 | |
| 20260506031544 | 11 | 0.0 | 0.0 | 0.00 | 1.55 | 0.00 | 97 | 1004.7 | |
| 20260506030541 | 11 | 225 | 0.0 | 3.2 | 0.00 | 1.55 | 0.00 | 97 | 1004.7 |
| 20260506025618 | 11 | 203 | 0.0 | 3.2 | 0.00 | 1.55 | 0.00 | 97 | 1004.8 |
| 20260506024534 | 11 | 180 | 0.0 | 3.2 | 0.00 | 1.55 | 0.00 | 97 | 1004.8 |
| 20260506023531 | 11 | 232 | 0.0 | 3.2 | 0.00 | 1.55 | 0.00 | 97 | 1004.8 |
| 20260506022528 | 11 | 181 | 1.6 | 6.4 | 0.00 | 1.55 | 0.00 | 97 | 1004.8 |
| 20260506021525 | 11 | 158 | 0.0 | 3.2 | 0.00 | 1.55 | 0.00 | 97 | 1004.8 |
| 20260506020542 | 11 | 226 | 0.0 | 3.2 | 0.00 | 1.55 | 0.00 | 97 | 1004.8 |
| 20260506015519 | 11 | 210 | 0.0 | 3.2 | 0.00 | 1.55 | 0.00 | 96 | 1004.8 |
| 20260506014516 | 11 | 169 | 0.0 | 3.2 | 0.00 | 1.55 | 0.00 | 96 | 1004.9 |
| 20260506013613 | 11 | 203 | 0.0 | 3.2 | 0.00 | 1.55 | 0.00 | 96 | 1005.1 |
| 20260506012610 | 11 | 219 | 1.6 | 6.4 | 0.00 | 1.55 | 0.00 | 96 | 1005.1 |
| 20260506011608 | 11 | 209 | 1.6 | 6.4 | 0.00 | 1.55 | 0.00 | 96 | 1005.2 |
| 20260506010604 | 11 | 180 | 0.0 | 3.2 | 0.00 | 1.55 | 0.00 | 96 | 1005.1 |
| 20260506005601 | 11 | 274 | 1.6 | 3.2 | 0.00 | 1.55 | 0.00 | 96 | 1005.1 |
| 20260506004558 | 11 | 150 | 1.6 | 6.4 | 0.00 | 1.55 | 0.00 | 96 | 1005.2 |
| 20260506003554 | 11 | 158 | 0.0 | 3.2 | 0.00 | 1.55 | 0.00 | 96 | 1005.3 |
| 20260506002551 | 11 | 180 | 1.6 | 3.2 | 0.00 | 1.55 | 0.00 | 96 | 1005.4 |
| 20260506001608 | 11 | 179 | 1.6 | 6.4 | 0.00 | 1.55 | 0.00 | 96 | 1005.3 |
| 20260506000545 | 11 | 158 | 0.0 | 3.2 | 0.00 | 1.55 | 0.00 | 97 | 1005.4 |
| 20260505235542 | 11 | 113 | 0.0 | 3.2 | 0.00 | 1.55 | 0.00 | 97 | 1005.7 |
| 20260505234539 | 12 | 209 | 1.6 | 6.4 | 0.00 | 1.55 | 0.00 | 97 | 1005.6 |
| 20260505233536 | 12 | 203 | 0.0 | 6.4 | 0.00 | 1.55 | 0.00 | 97 | 1005.6 |
| 20260505232533 | 12 | 158 | 1.6 | 6.4 | 0.00 | 1.55 | 0.00 | 98 | 1005.6 |
| 20260505231530 | 12 | 151 | 1.6 | 6.4 | 0.00 | 1.55 | 0.00 | 99 | 1005.7 |
| 20260505230527 | 12 | 186 | 0.0 | 3.2 | 0.00 | 1.55 | 0.00 | 99 | 1005.7 |
| 20260505225524 | 12 | 225 | 0.0 | 3.2 | 0.00 | 1.55 | 0.00 | 99 | 1005.7 |
| 20260505224521 | 11 | 225 | 0.0 | 3.2 | 0.00 | 1.55 | 0.00 | 99 | 1005.8 |
| 20260505223518 | 11 | 0.0 | 3.2 | 0.00 | 1.55 | 0.00 | 99 | 1005.8 | |
| 20260505222614 | 11 | 0.0 | 0.0 | 0.00 | 1.55 | 0.00 | 99 | 1005.9 | |
| 20260505221611 | 11 | 0.0 | 0.0 | 0.00 | 1.55 | 0.00 | 99 | 1005.8 | |
| 20260505220609 | 11 | 0.0 | 0.0 | 0.00 | 1.55 | 0.00 | 99 | 1006.0 | |
| 20260505215605 | 11 | 0.0 | 0.0 | 0.00 | 1.55 | 1.55 | 99 | 1006.1 | |
| 20260505214601 | 11 | 0.0 | 0.0 | 0.00 | 1.55 | 1.55 | 99 | 1006.0 | |
| 20260505213558 | 11 | 0.0 | 0.0 | 0.00 | 1.55 | 1.55 | 99 | 1006.2 | |
| 20260505212555 | 11 | 0.0 | 0.0 | 0.00 | 1.55 | 1.55 | 99 | 1006.3 | |
| 20260505211552 | 11 | 0.0 | 0.0 | 0.00 | 1.55 | 1.55 | 99 | 1006.3 | |
| 20260505210549 | 11 | 0.0 | 0.0 | 0.03 | 1.55 | 1.55 | 99 | 1006.3 | |
| 20260505205546 | 11 | 0.0 | 0.0 | 0.05 | 1.55 | 1.55 | 99 | 1006.3 |